Weather History for Mammoth, CA

Change the Weather History Date:

Thursday, October 24, 2013

  Actual Average Record
Temperature  
Mean Temperature 42 °F -  
Max Temperature 66 °F 52 °F 75 °F (1997)
Min Temperature 19 °F 35 °F 19 °F (2013)
Degree Days  
Heating Degree Days 22    
Moisture  
Dew Point 14 °F    
Average Humidity 35    
Maximum Humidity 64    
Minimum Humidity 12    
Precipitation  
Precipitation 0.00 in - - ()
Sea Level Pressure  
Sea Level Pressure 30.22 in    
Wind  
Wind Speed 3 mph (NW)    
Max Wind Speed 9 mph    
Max Gust Speed -    
Visibility 10 miles    
Events      
Averages and records for this station are not official NWS values.
T = Trace of Precipitation, MM = Missing Value Source: NWS Daily Summary

Daily Weather History Graph

Daily Weather History Graph

Search for Another Location

Airport:

Trip Planner

Search our weather history database for the weather conditions in past years. The results will help you decide how hot, cold, wet, or windy it might be!

Date:

Astronomy

Oct. 24, 2013 Rise Set
Actual Time 7:12 AM PDT 6:05 PM PDT
Civil Twilight 6:45 AM PDT 6:32 PM PDT
Nautical Twilight 6:15 AM PDT 7:03 PM PDT
Astronomical Twilight 5:44 AM PDT 7:33 PM PDT
Moon 10:36 PM PDT (10/24) 12:14 PM PDT (10/24)
Length of Visible Light 11h 46m
Length of Day
10h 53m
Waning Gibbous, 70% of the Moon is Illuminated
Oct 24
Waning Gibbous
Oct 26
Last Quarter
Nov 3
New
Nov 9
First Quarter
Nov 17
Full

Hourly Weather History & Observations

Time (PDT) Temp. Windchill Dew Point Humidity Pressure Visibility Wind Dir Wind Speed Gust Speed Precip Events Conditions
12:15 AM 37.4 °F 32.8 °F 15.8 °F 41% 30.20 in 10.0 mi West 5.8 mph - N/A   Clear
12:35 AM 37.4 °F - 15.8 °F 41% 30.20 in 10.0 mi Calm Calm - N/A   Clear
12:55 AM 37.4 °F 32.1 °F 15.8 °F 41% 30.21 in 10.0 mi West 6.9 mph - N/A   Clear
1:15 AM 35.6 °F - 15.8 °F 44% 30.21 in 10.0 mi Calm Calm - N/A   Clear
1:35 AM 35.6 °F 32.8 °F 15.8 °F 44% 30.21 in 10.0 mi NW 3.5 mph - N/A   Clear
1:55 AM 35.6 °F 32.8 °F 15.8 °F 44% 30.21 in 10.0 mi NNW 3.5 mph - N/A   Clear
2:15 AM 33.8 °F 30.8 °F 14.0 °F 44% 30.21 in 10.0 mi NW 3.5 mph - N/A   Clear
2:35 AM 32.0 °F 28.7 °F 14.0 °F 48% 30.22 in 10.0 mi North 3.5 mph - N/A   Clear
2:55 AM 28.4 °F 24.6 °F 12.2 °F 51% 30.21 in 10.0 mi North 3.5 mph - N/A   Clear
3:15 AM 28.4 °F 23.3 °F 14.0 °F 55% 30.21 in 10.0 mi North 4.6 mph - N/A   Clear
3:35 AM 28.4 °F - 14.0 °F 55% 30.21 in 10.0 mi Calm Calm - N/A   Clear
3:55 AM 28.4 °F - 14.0 °F 55% 30.21 in 10.0 mi Calm Calm - N/A   Clear
4:15 AM 26.6 °F 21.2 °F 14.0 °F 59% 30.21 in 10.0 mi NW 4.6 mph - N/A   Clear
4:35 AM 24.8 °F 19.1 °F 12.2 °F 59% 30.21 in 10.0 mi NNW 4.6 mph - N/A   Clear
4:55 AM 28.4 °F - 14.0 °F 55% 30.21 in 10.0 mi Calm Calm - N/A   Clear
5:15 AM 26.6 °F - 14.0 °F 59% 30.21 in 10.0 mi Calm Calm - N/A   Clear
5:35 AM 28.4 °F - 14.0 °F 55% 30.21 in 10.0 mi Calm Calm - N/A   Clear
5:55 AM 26.6 °F 22.6 °F 12.2 °F 55% 30.21 in 10.0 mi NW 3.5 mph - N/A   Clear
6:15 AM 19.4 °F - 8.6 °F 63% 30.22 in 10.0 mi Calm Calm - N/A   Clear
6:35 AM 19.4 °F - 8.6 °F 63% 30.22 in 10.0 mi Calm Calm - N/A   Clear
6:55 AM 23.0 °F 18.4 °F 12.2 °F 63% 30.22 in 10.0 mi North 3.5 mph - N/A   Clear
7:15 AM 23.0 °F - 12.2 °F 63% 30.22 in 10.0 mi North - - N/A   Clear
7:35 AM 23.0 °F 17.0 °F 12.2 °F 63% 30.23 in 10.0 mi North 4.6 mph - N/A   Clear
7:55 AM 24.8 °F - 14.0 °F 64% 30.23 in 10.0 mi Calm Calm - N/A   Clear
8:15 AM 30.2 °F - 15.8 °F 55% 30.23 in 10.0 mi Calm Calm - N/A   Clear
8:35 AM 33.8 °F - 15.8 °F 48% 30.24 in 10.0 mi Calm Calm - N/A   Clear
8:55 AM 37.4 °F - 15.8 °F 41% 30.24 in 10.0 mi Calm Calm - N/A   Clear
9:15 AM 42.8 °F - 15.8 °F 34% 30.24 in 10.0 mi Calm Calm - N/A   Clear
9:35 AM 44.6 °F 42.2 °F 15.8 °F 31% 30.24 in 10.0 mi SE 4.6 mph - N/A   Clear
9:55 AM 46.4 °F 43.5 °F 17.6 °F 32% 30.25 in 10.0 mi SSE 5.8 mph - N/A   Clear
10:15 AM 50.0 °F - 17.6 °F 28% 30.24 in 10.0 mi SE 4.6 mph - N/A   Clear
10:35 AM 51.8 °F - 17.6 °F 26% 30.24 in 10.0 mi SE 3.5 mph - N/A   Clear
10:55 AM 55.4 °F - 17.6 °F 23% 30.24 in 10.0 mi SE 3.5 mph - N/A   Clear
11:15 AM 59.0 °F - 15.8 °F 19% 30.24 in 7.0 mi Calm Calm - N/A   Clear
11:35 AM 60.8 °F - 14.0 °F 16% 30.24 in 10.0 mi Calm Calm - N/A   Clear
11:55 AM 62.6 °F - 12.2 °F 14% 30.24 in 10.0 mi Calm Calm - N/A   Clear
12:15 PM 62.6 °F - 14.0 °F 15% 30.23 in 10.0 mi SE 6.9 mph - N/A   Clear
12:35 PM 62.6 °F - 14.0 °F 15% 30.22 in 10.0 mi SE 9.2 mph - N/A   Clear
12:55 PM 64.4 °F - 12.2 °F 13% 30.21 in 10.0 mi Calm Calm - N/A   Clear
1:15 PM 64.4 °F - 12.2 °F 13% 30.20 in 10.0 mi SE 5.8 mph - N/A   Clear
1:35 PM 64.4 °F - 12.2 °F 13% 30.19 in 10.0 mi SE 3.5 mph - N/A   Clear
1:55 PM 64.4 °F - 12.2 °F 13% 30.19 in 10.0 mi SSW 4.6 mph - N/A   Clear
2:15 PM 64.4 °F - 12.2 °F 13% 30.18 in 10.0 mi West 4.6 mph - N/A   Clear
2:35 PM 64.4 °F - 12.2 °F 13% 30.18 in 10.0 mi ESE 6.9 mph - N/A   Clear
2:55 PM 66.2 °F - 12.2 °F 12% 30.17 in 10.0 mi NE 5.8 mph - N/A   Clear
3:15 PM 66.2 °F - 12.2 °F 12% 30.18 in 10.0 mi NNE 3.5 mph - N/A   Clear
3:35 PM 64.4 °F - 12.2 °F 13% 30.17 in 10.0 mi Calm Calm - N/A   Clear
3:55 PM 64.4 °F - 12.2 °F 13% 30.17 in 10.0 mi NE 4.6 mph - N/A   Mostly Cloudy
4:15 PM 64.4 °F - 12.2 °F 13% 30.17 in 10.0 mi NNW 5.8 mph - N/A   Scattered Clouds
4:35 PM 62.6 °F - 12.2 °F 14% 30.18 in 10.0 mi NW 6.9 mph - N/A   Clear
4:55 PM 62.6 °F - 12.2 °F 14% 30.18 in 10.0 mi Calm Calm - N/A   Mostly Cloudy
5:15 PM 60.8 °F - 12.2 °F 15% 30.18 in 10.0 mi SSE 3.5 mph - N/A   Overcast
5:35 PM 59.0 °F - 12.2 °F 16% 30.19 in 10.0 mi Calm Calm - N/A   Overcast
5:55 PM 55.4 °F - 10.4 °F 17% 30.20 in 10.0 mi Calm Calm - N/A   Overcast
6:15 PM 51.8 °F - 10.4 °F 19% 30.20 in 10.0 mi Calm Calm - N/A   Scattered Clouds
6:35 PM 50.0 °F - 10.4 °F 20% 30.21 in 10.0 mi Calm Calm - N/A   Clear
6:55 PM 48.2 °F - 10.4 °F 22% 30.22 in 10.0 mi WNW 6.9 mph - N/A   Clear
7:15 PM 46.4 °F 42.4 °F 14.0 °F 27% 30.23 in 10.0 mi West 8.1 mph - N/A   Clear
7:35 PM 48.2 °F - 19.4 °F 32% 30.24 in 10.0 mi West 5.8 mph - N/A   Clear
7:55 PM 42.8 °F - 17.6 °F 36% 30.25 in 10.0 mi Calm Calm - N/A   Clear
8:15 PM 44.6 °F 42.2 °F 17.6 °F 34% 30.26 in 10.0 mi NNW 4.6 mph - N/A   Clear
8:35 PM 44.6 °F 43.1 °F 17.6 °F 34% 30.26 in 10.0 mi NW 3.5 mph - N/A   Clear
8:55 PM 41.0 °F 38.0 °F 17.6 °F 39% 30.27 in 10.0 mi West 4.6 mph - N/A   Clear
9:15 PM 41.0 °F - 15.8 °F 36% 30.27 in 10.0 mi Calm Calm - N/A   Clear
9:35 PM 39.2 °F - 15.8 °F 39% 30.28 in 10.0 mi Calm Calm - N/A   Clear
9:55 PM 39.2 °F 33.6 °F 15.8 °F 39% 30.29 in 10.0 mi NNW 8.1 mph - N/A   Clear
10:15 PM 41.0 °F 38.0 °F 15.8 °F 36% 30.30 in 10.0 mi NW 4.6 mph - N/A   Clear
10:35 PM 39.2 °F - 15.8 °F 39% 30.30 in 10.0 mi Calm Calm - N/A   Clear
10:55 PM 39.2 °F 37.0 °F 15.8 °F 39% 30.30 in 10.0 mi NW 3.5 mph - N/A   Clear
11:15 PM 39.2 °F 37.0 °F 15.8 °F 39% 30.31 in 10.0 mi WNW 3.5 mph - N/A   Clear
11:35 PM 37.4 °F 34.9 °F 14.0 °F 38% 30.30 in 10.0 mi West 3.5 mph - N/A   Clear
11:55 PM 41.0 °F 36.4 °F 15.8 °F 36% 30.31 in 10.0 mi WNW 6.9 mph - N/A   Clear